This demonstration page uses our WeatherBlox Daily Observations layout. Learn more.

Left ArrowRight Arrow

44.89941, -97.11507

Hourly Observations for April 8, 2019

Temp ( °F °C ) Dew Point ( °F °C ) Humidity (%) Winds ( mph kmh ) Pressure ( in mb ) Visibility ( mi km ) Precip ( " mm )
12:53 am 00:53 Clear 45 7.2 37 2.8 74 74 SSE 6 9 29.82 1010 10 16 0.00 0.00
1:53 am 01:53 Clear 43 6.1 36 2.2 76 76 SSE 6 9 29.81 1009 10 16 0.00 0.00
2:53 am 02:53 Clear 42 5.6 36 2.2 79 79 SSE 7 11 29.80 1009 10 16 0.00 0.00
3:53 am 03:53 Clear 42 5.6 35 1.7 76 76 S 7 11 29.78 1008 10 16 0.00 0.00
4:53 am 04:53 Clear 42 5.6 34 1.1 73 73 S 8 13 29.78 1009 10 16 0.00 0.00
5:53 am 05:53 Clear 44 6.7 35 1.7 71 71 SSE 10 17 29.73 1007 10 16 0.00 0.00
6:53 am 06:53 Clear 44 6.7 35 1.7 71 71 SSW 12 19 29.75 1007 10 16 0.00 0.00
7:53 am 07:53 Sunny 46 7.8 36 2.2 68 68 WSW 13 20 29.77 1008 10 16 0.00 0.00
8:53 am 08:53 Sunny 52 11.1 37 2.8 57 57 W 15 24 29.80 1009 10 16 0.00 0.00
9:53 am 09:53 Partly Cloudy 51 10.6 37 2.8 59 59 WNW 15 24 29.81 1010 10 16 0.00 0.00
10:53 am 10:53 Cloudy 53 11.7 39 3.9 59 59 WNW 15 24 29.82 1010 10 16 0.00 0.00
11:53 am 11:53 Mostly Sunny 59 15 41 5 51 51 WNW 20 31 29.83 1010 10 16 0.00 0.03
12:53 pm 12:53 Sunny 62 16.7 42 5.6 48 48 NW 20 31 29.85 1011 10 16 0.00 0.00
1:53 pm 13:53 Sunny 62 16.7 39 3.9 43 43 NW 21 33 29.86 1011 10 16 0.00 0.00
2:53 pm 14:53 Mostly Sunny 64 17.8 38 3.3 38 38 NW 22 35 29.86 1011 10 16 0.00 0.00
3:53 pm 15:53 Sunny 65 18.3 36 2.2 34 34 WNW 20 31 29.87 1012 10 16 0.00 0.00
4:53 pm 16:53 Sunny 63 17.2 35 1.7 35 35 NW 21 33 29.88 1012 10 16 0.00 0.00
5:53 pm 17:53 Sunny 61 16.1 32 0 34 34 WNW 18 30 29.91 1013 10 16 0.00 0.00
6:53 pm 18:53 Sunny 58 14.4 31 -0.6 36 36 NW 13 20 29.93 1014 10 16 0.00 0.00
7:53 pm 19:53 Sunny 54 12.2 30 -1.1 40 40 WNW 6 9 29.94 1014 10 16 0.00 0.00
8:53 pm 20:53 Clear 50 10 30 -1.1 46 46 WNW 3 6 29.94 1014 10 16 0.00 0.00
9:53 pm 21:53 Clear 39 3.9 30 -1.1 70 70 NNW 5 7 29.98 1015 10 16 0.00 0.00
10:53 pm 22:53 Clear 41 5 34 1.1 76 76 NNE 7 11 30.00 1016 10 16 0.00 0.00
11:33 pm 23:33 Partly Cloudy with Mist and Fog 44 6.7 42 5.6 93 93 ENE 5 7 30.01 1016 3 5 0.00 0.00
11:35 pm 23:35 Mostly Cloudy with Mist and Fog 43 6.1 42 5.6 97 97 ENE 3 6 30.01 1016 2 3 0.00 0.00
11:39 pm 23:39 Mostly Cloudy with Mist and Fog 44 6.7 43 6.1 96 96 ENE 3 6 30.00 1016 1 1 0.00 0.00
11:53 pm 23:53 Cloudy with Mist and Fog 43 6.1 43 6.1 100 100 Calm 30.00 1016 1 1 0.00 0.00

Powered by AerisWeather